This is the latest recevied weather packets stored in our database for station/object N6RDS. If no packets are shown the sender has not sent any weather packets the latest 10 day(s).
| Time | Temp. | Humidity | Pressure | Rain* | Wind** | Luminosity | Snow |
|---|---|---|---|---|---|---|---|
| 1777627925 | 2.78° C | 44% | 1021.8 hPa | 0 mm | - | 0 W/m² | - |
| 1777627619 | 2.78° C | 44% | 1022.1 hPa | 0 mm | - | 0 W/m² | - |
| 1777627313 | 3.33° C | 42% | 1021.8 hPa | 0 mm | - | 0 W/m² | - |
| 1777627011 | 3.89° C | 43% | 1022 hPa | 0 mm | - | 0 W/m² | - |
| 1777626707 | 3.89° C | 41% | 1021.7 hPa | 0 mm | - | 0 W/m² | - |
| 1777626403 | 3.89° C | 41% | 1022 hPa | 0 mm | - | 0 W/m² | - |
| 1777626102 | 4.44° C | 41% | 1022.1 hPa | 0 mm | - | 0 W/m² | - |
| 1777625796 | 4.44° C | 40% | 1021.8 hPa | 0 mm | - | 0 W/m² | - |
| 1777625493 | 5° C | 40% | 1022 hPa | 0 mm | - | 0 W/m² | - |
| 1777625188 | 5° C | 40% | 1021.8 hPa | 0 mm | - | 0 W/m² | - |
| 1777624885 | 5° C | 37% | 1022.2 hPa | 0 mm | - | 0 W/m² | - |
| 1777624581 | 5.56° C | 37% | 1022.1 hPa | 0 mm | - | 0 W/m² | - |
| 1777624281 | 6.11° C | 38% | 1022.2 hPa | 0 mm | - | 0 W/m² | - |
| 1777623980 | 6.67° C | 36% | 1022 hPa | 0 mm | - | 0 W/m² | - |
| 1777623676 | 6.67° C | 34% | 1022.2 hPa | 0 mm | - | 0 W/m² | - |
| 1777623374 | 6.67° C | 34% | 1022 hPa | 0 mm | - | 0 W/m² | - |
| 1777623070 | 7.22° C | 34% | 1022.3 hPa | 0 mm | - | 0 W/m² | - |
| 1777622768 | 7.78° C | 32% | 1022.1 hPa | 0 mm | - | 0 W/m² | - |
| 1777622464 | 7.78° C | 34% | 1022.1 hPa | 0 mm | - | 0 W/m² | - |
| 1777622160 | 8.33° C | 31% | 1022 hPa | 0 mm | - | 0 W/m² | - |
| 1777621856 | 8.89° C | 31% | 1022.2 hPa | 0 mm | - | 0 W/m² | - |
| 1777621552 | 7.78° C | 31% | 1022.2 hPa | 0 mm | - | 0 W/m² | - |
| 1777621249 | 7.22° C | 33% | 1022.4 hPa | 0 mm | - | 0 W/m² | - |
| 1777620945 | 6.67° C | 34% | 1022.3 hPa | 0 mm | - | 0 W/m² | - |
| 1777620641 | 6.11° C | 39% | 1022.2 hPa | 0 mm | - | 0 W/m² | - |
* Rain latest hour (hover to see other rain measurements)
** Current wind speed in m/s (hover to see current wind gust speed)